Temperature
32 33 33 33 33 33 33 33 32 32 32 32 32 33 32 31 30 29 28 27 26 25 24 24 23 22 22 21 21 20 20 19 19 19 19 18 18 18 18 17 17 17 17 16
30 32 33 32 33 33 33 33 33 33 32 33 33 32 31 30 29 29 27 27 26 25 24 23 23 22 22 21 21 20 20 19 19 19 19 18 18 18 17 17 17 17 16 16
29 31 31 31 32 33 33 33 33 32 32 33 32 31 31 30 29 28 27 26 25 24 23 23 22 22 22 21 21 20 20 19 19 19 18 18 18 17 17 17 17 16 16 16
28 29 28 31 33 33 33 33 33 33 33 33 32 31 30 29 28 28 27 26 25 24 23 23 22 22 22 21 20 20 20 19 19 19 18 18 17 17 17 17 16 16 16 16
28 28 29 31 32 33 32 32 33 33 33 33 32 31 29 28 28 27 26 25 25 24 23 23 22 22 21 21 20 20 20 19 19 19 18 18 17 17 17 17 16 16 16 16
27 27 27 29 32 33 32 30 33 33 32 32 31 30 29 28 27 27 26 25 24 24 23 23 22 21 21 20 20 20 19 19 19 19 18 18 18 17 17 16 16 15 15 15
26 27 28 30 31 32 29 29 31 31 31 31 30 29 28 27 27 26 25 24 24 23 23 22 22 21 21 20 20 20 19 19 18 18 18 18 17 17 17 16 15 15 15 15
26 26 27 30 30 29 28 28 29 29 29 28 28 28 27 26 26 25 24 23 23 23 22 22 21 21 20 20 20 19 19 18 18 18 18 17 17 17 16 16 15 15 15 15
26 27 27 28 27 27 27 27 27 28 27 27 27 27 26 25 25 24 23 23 22 22 21 21 20 20 20 20 19 19 19 18 18 18 17 17 17 17 16 16 15 15 15 14
26 26 27 26 26 26 26 26 26 26 26 26 26 26 25 24 24 23 22 22 22 21 20 20 20 20 20 19 19 19 18 18 18 17 17 17 16 16 16 15 15 15 14 14
25 25 25 25 25 25 25 25 25 25 25 25 25 24 24 23 23 22 21 21 21 20 20 20 19 19 19 19 19 18 18 18 17 17 17 16 16 16 16 16 15 15 15 14
24 25 25 24 24 24 24 24 24 24 24 24 24 23 23 22 22 21 21 20 20 20 19 19 19 19 19 18 18 18 18 17 17 17 16 16 16 15 15 15 15 15 15 14
23 23 24 23 23 23 23 23 23 23 23 23 22 22 22 21 21 20 20 20 19 19 19 19 18 18 18 18 18 18 18 17 17 16 16 16 16 15 15 15 15 15 14 14
21 22 22 22 22 22 22 22 22 22 22 22 22 21 21 21 20 20 19 19 19 19 19 18 18 17 17 17 17 17 17 17 17 16 16 16 16 15 15 15 15 15 14 14
20 21 21 21 21 21 21 22 22 22 22 21 21 21 20 20 19 19 19 18 18 18 18 18 18 17 17 17 17 17 17 17 16 16 16 16 15 15 15 15 15 14 14 14
20 20 20 21 21 21 21 21 21 21 21 20 20 20 19 19 19 18 18 18 18 17 17 17 17 17 17 17 17 16 16 16 16 16 16 15 15 15 15 15 15 14 14 14
19 20 20 20 20 20 20 20 20 20 20 20 19 19 19 18 18 18 17 17 17 17 17 17 16 16 16 16 16 16 16 16 16 16 16 15 15 15 15 15 15 14 14 14
19 19 19 19 19 19 19 19 19 19 19 19 18 18 18 18 17 17 17 17 17 16 16 16 16 16 16 16 15 15 16 16 16 15 15 15 15 15 15 15 14 14 14 13
18 18 18 18 18 18 18 18 18 18 18 18 18 17 17 17 17 17 16 16 16 16 16 16 16 16 15 15 15 15 15 15 15 15 15 15 15 15 14 14 14 14 13 13
17 17 17 17 17 17 17 17 17 17 17 17 17 17 16 16 16 16 16 16 16 16 16 16 15 15 15 15 15 15 15 15 15 15 15 14 14 14 14 14 14 13 13 13
16 16 16 16 16 16 17 16 16 16 16 16 16 16 16 16 15 15 15 15 15 15 15 15 15 15 15 15 15 15 15 15 15 15 14 14 14 14 13 13 13 13 13 12
15 15 15 15 16 16 16 16 16 16 15 15 15 15 15 15 15 15 15 15 15 15 15 15 15 15 14 14 15 15 15 15 15 14 14 14 14 13 13 13 13 13 12 12
14 14 14 15 15 15 15 15 15 15 15 15 15 15 15 15 15 15 15 15 15 14 14 14 14 14 14 14 14 14 14 14 14 14 14 13 13 13 13 13 12 12 12 12
13 13 13 14 14 14 14 14 14 14 14 14 14 14 14 14 14 14 14 14 14 14 14 14 14 14 14 14 13 14 14 14 14 13 13 13 13 13 12 12 12 12 12 12
13 13 13 13 13 13 13 14 14 14 14 14 14 14 14 14 14 14 14 14 14 14 13 13 13 13 13 13 13 13 13 13 13 13 13 13 13 12 12 12 12 12 12 11
12 12 13 13 13 13 13 13 14 13 13 13 13 13 13 13 13 13 13 13 13 13 13 13 13 13 13 13 13 13 13 13 13 13 13 13 12 12 12 12 12 11 11 11
12 12 12 13 13 13 13 13 13 13 13 13 13 13 13 13 13 13 13 13 13 13 13 13 12 12 12 12 12 12 12 12 12 12 12 12 12 12 12 11 11 11 11 10
Wind_Speed
16 15 16 16 17 18 17 14 10 9 10 9 9 9 10 11 11 11 11 11 10 10 10 10 10 9 9 9 8 8 8 8 7 6 5 5 5 4 4 3 3 3 3 3
17 17 16 16 17 17 17 14 14 10 7 6 8 9 9 10 10 10 10 10 10 9 10 10 10 10 9 8 8 8 8 8 7 7 6 6 5 5 4 3 3 3 3 3
15 17 16 18 16 16 14 13 13 11 8 8 8 9 9 9 10 10 9 9 9 9 8 9 10 9 8 8 8 8 8 8 8 7 7 6 6 6 5 4 4 3 4 4
13 14 18 14 13 13 14 13 13 9 8 8 8 10 9 8 8 8 9 8 8 9 9 9 9 9 8 8 8 8 8 8 8 8 7 6 6 6 5 4 4 4 4 4
12 15 15 13 13 13 12 11 10 9 8 8 9 10 8 7 8 7 8 8 7 8 8 9 10 9 8 8 9 8 8 8 8 8 8 7 6 6 5 4 4 4 4 4
11 14 15 13 12 9 9 9 8 8 7 6 7 7 6 7 7 8 8 7 7 8 8 8 9 10 9 8 8 8 8 7 7 7 7 7 7 6 5 4 4 4 4 4
15 14 10 9 9 9 11 6 3 4 4 5 4 3 6 7 7 7 7 7 7 7 7 8 9 9 9 8 8 7 7 7 7 7 7 7 6 6 6 5 5 4 4 4
14 14 9 4 7 6 3 4 3 3 5 6 6 7 8 7 6 7 7 7 7 6 6 7 8 8 8 7 7 7 7 8 7 7 7 7 7 6 6 5 5 5 4 4
6 5 2 5 6 6 6 6 5 5 6 6 6 6 7 6 6 6 6 6 6 7 7 7 7 7 7 6 7 7 7 7 7 7 6 7 7 7 6 6 5 5 5 4
4 4 3 6 7 6 6 6 5 4 5 5 4 5 6 6 6 6 6 6 5 7 7 7 7 6 5 6 7 7 8 7 7 7 7 7 6 6 6 6 5 5 5 4
5 4 4 4 4 4 4 5 4 4 4 5 5 4 5 6 6 5 5 5 5 6 6 7 7 6 7 7 7 8 8 7 7 7 7 6 5 3 4 3 3 3 3 3
5 6 5 5 3 3 3 3 3 4 4 4 4 4 4 5 5 5 5 5 5 5 5 6 6 6 6 7 7 7 8 7 7 7 7 7 7 5 5 4 6 6 5 3
1 2 5 6 5 3 2 2 3 3 3 3 3 3 3 4 4 4 5 5 5 5 5 5 6 6 6 6 7 7 7 7 6 7 7 7 7 7 6 3 4 4 4 5
3 2 4 5 4 3 2 2 2 2 2 2 2 3 3 3 4 4 4 4 4 5 4 5 6 6 6 6 6 7 7 7 7 6 7 7 7 7 7 7 6 4 3 5
1 1 2 3 3 2 1 1 2 2 2 2 2 3 3 3 4 3 3 3 3 3 3 3 4 5 5 6 6 6 6 6 6 6 6 6 6 6 6 7 6 5 4 4
3 3 3 3 3 2 2 2 2 1 1 1 2 2 3 4 3 3 3 3 3 3 3 2 3 3 4 5 6 5 5 5 5 5 5 5 5 5 6 6 6 6 6 6
4 4 4 3 3 2 2 2 1 1 1 1 1 1 2 3 3 3 3 3 3 3 3 2 3 3 4 4 5 5 5 5 6 5 5 5 5 5 5 5 5 5 5 7
2 2 3 3 3 3 2 2 2 2 1 1 1 1 1 2 2 2 2 2 2 2 2 3 3 3 4 4 4 4 4 4 4 4 4 3 4 4 4 4 5 5 4 6
3 3 3 4 3 3 3 3 3 2 2 2 2 2 2 2 2 2 2 2 3 3 3 3 4 5 4 4 4 4 5 5 4 4 3 3 3 3 3 4 4 4 4 5
2 3 3 4 4 4 3 3 3 3 3 3 2 2 3 3 3 3 3 3 3 2 2 3 4 4 4 4 4 4 5 5 4 4 3 3 3 3 3 4 4 4 4 4
2 3 3 4 4 3 2 3 3 3 3 3 3 3 3 3 4 4 4 4 2 2 2 4 4 4 3 3 5 5 4 4 4 4 4 3 3 3 3 3 3 3 3 4
2 2 3 3 3 3 3 4 4 4 4 4 4 4 4 4 4 3 3 3 2 3 2 2 3 3 2 3 3 4 4 3 3 3 3 3 3 3 3 4 3 4 4 4
3 3 2 3 2 3 3 3 3 3 4 4 4 4 4 3 3 3 3 3 2 3 2 2 3 5 3 3 3 4 4 3 3 3 3 3 4 3 3 3 3 3 4 4
3 3 3 2 2 3 3 3 3 2 3 3 3 4 3 3 2 2 1 2 3 3 2 2 4 4 4 3 3 3 3 3 3 3 3 3 3 4 4 4 4 4 4 4
3 3 3 2 3 3 2 2 2 2 2 1 1 1 2 2 2 1 1 1 3 3 2 3 5 5 4 3 2 2 2 1 2 2 2 3 4 4 3 3 3 2 3 3
3 2 2 2 2 2 2 3 2 2 2 1 1 1 1 1 1 1 1 2 2 2 3 2 3 3 3 2 2 2 1 2 2 2 2 2 2 2 2 2 3 2 2 3
2 1 1 2 2 2 2 2 2 2 1 1 1 1 1 1 1 1 1 1 1 2 2 2 2 2 2 2 2 2 2 1 1 1 1 0 0 1 1 2 2 2 2 2
Wind_Direction
246 236 224 219 226 226 230 239 232 201 196 182 166 153 142 137 138 140 141 143 145 151 149 151 151 153 155 159 157 156 156 157 156 153 150 150 143 139 137 138 126 106 105 99
244 244 237 227 225 226 228 231 231 221 207 164 151 141 141 141 146 147 149 150 148 150 150 156 157 158 158 159 156 154 157 156 152 154 156 153 147 142 137 128 115 112 107 94
239 239 241 234 227 223 225 230 230 224 200 170 162 151 149 150 153 153 149 148 152 156 157 160 160 159 160 155 153 156 157 157 158 160 161 161 158 148 146 141 132 119 105 98
238 237 238 237 236 236 232 227 227 226 186 178 167 146 135 138 146 151 153 152 154 157 162 161 158 157 157 159 157 160 164 164 163 166 166 163 159 154 152 147 140 133 119 112
235 231 233 236 231 229 230 231 221 219 202 183 162 148 137 145 150 148 149 150 153 159 163 160 161 160 160 164 164 167 169 171 171 170 166 166 166 160 156 149 145 142 135 127
236 234 229 231 230 231 236 228 215 206 197 188 175 175 151 143 146 146 142 145 148 155 158 159 162 161 166 172 171 175 174 171 169 167 166 169 165 158 153 150 154 152 143 139
233 237 238 238 225 213 225 222 183 168 169 183 162 111 118 132 130 128 135 137 143 150 156 156 157 160 171 175 178 173 166 164 163 164 166 162 153 153 156 160 157 152 148 149
230 235 230 243 214 204 137 77 84 109 106 92 99 107 118 118 117 128 132 140 147 146 143 145 151 161 172 174 167 160 159 161 162 163 169 159 156 159 161 163 164 164 165 164
219 221 91 62 70 83 92 88 81 82 97 109 108 112 120 121 124 131 137 142 146 145 141 144 152 160 170 164 158 157 157 160 161 162 159 157 164 167 171 176 180 177 181 186
192 166 131 91 83 72 84 93 93 98 102 105 105 108 118 125 130 134 141 147 145 144 147 148 152 156 155 148 150 155 159 159 163 164 165 166 173 176 180 181 186 184 186 189
187 145 130 106 93 85 75 87 101 105 108 115 105 108 117 119 125 131 140 147 143 146 152 154 155 160 158 154 157 161 163 168 175 173 167 166 167 164 172 152 169 179 182 180
191 168 159 136 117 99 97 93 97 103 103 101 109 104 105 114 123 131 137 138 144 152 161 164 165 164 162 163 166 168 172 176 182 180 174 175 171 153 71 103 120 112 112 125
96 147 149 138 136 132 127 101 92 101 105 104 103 106 107 113 128 135 138 143 153 161 160 168 171 168 169 171 172 178 182 182 189 186 180 184 183 178 170 127 93 95 112 125
20 64 124 125 127 132 143 149 124 104 112 122 123 126 128 125 128 135 144 153 160 161 161 167 169 171 171 167 172 184 193 191 196 194 186 188 193 190 186 182 181 183 170 163
261 230 151 131 140 149 160 174 166 158 148 132 129 130 128 124 124 127 137 145 147 153 153 163 172 173 174 174 181 193 199 198 201 204 191 190 195 194 195 193 187 177 160 157
225 208 205 189 182 196 215 222 212 186 154 100 95 109 110 118 122 122 130 140 152 156 155 163 168 169 170 177 185 196 203 196 196 207 203 193 195 199 199 192 189 184 181 174
221 204 203 210 208 223 238 247 248 240 211 139 103 107 118 129 131 136 145 157 155 153 161 169 180 176 179 189 199 207 202 196 196 208 210 199 197 201 202 201 196 190 181 168
245 249 237 228 233 242 258 261 260 251 239 264 178 157 166 165 166 161 166 171 161 170 181 187 178 180 188 196 206 221 213 199 202 215 216 207 201 199 203 200 191 185 175 164
238 247 252 247 251 257 261 272 266 261 231 243 228 199 199 196 186 185 180 200 212 209 195 179 165 186 204 202 215 224 217 208 206 214 217 194 200 199 196 203 197 189 182 167
251 255 257 257 248 249 256 271 277 266 253 243 231 213 206 206 198 202 204 226 233 225 177 168 178 199 206 202 220 232 226 214 207 199 198 204 209 204 205 204 196 193 183 172
241 253 257 258 256 250 259 268 268 262 253 247 240 226 216 212 210 208 213 221 186 158 168 174 194 203 210 202 223 234 227 217 206 197 193 196 204 208 218 211 192 188 190 184
285 267 259 260 263 264 265 264 261 257 249 239 232 224 217 216 218 216 214 223 200 154 185 228 218 169 168 191 222 236 225 211 200 193 192 190 190 202 223 219 199 191 192 189
312 298 273 253 255 268 270 271 266 260 253 244 229 219 220 221 230 224 226 209 191 160 205 245 142 132 157 227 236 234 228 217 201 195 195 193 194 196 208 211 204 193 188 189
291 287 277 266 248 242 257 272 278 265 250 244 233 217 210 214 231 252 252 142 148 160 218 148 146 160 198 231 239 234 221 212 210 213 209 194 191 195 201 203 206 197 183 185
268 260 255 246 241 235 232 239 236 233 231 220 244 240 226 213 208 221 201 158 156 171 194 176 182 192 204 221 229 239 227 216 220 212 212 210 206 200 195 188 180 172 164 168
257 256 239 244 262 249 232 224 218 209 215 213 196 183 241 234 160 151 149 184 197 198 197 177 176 185 199 215 216 206 197 182 190 216 235 224 196 180 166 153 152 163 170 165
235 244 255 255 253 266 253 223 215 210 208 204 187 172 171 143 136 129 158 178 185 199 204 192 190 191 200 214 213 206 216 212 180 171 182 170 119 134 145 153 157 152 158 168
Height
1452 1447 1448 1454 1457 1456 1460 1462 1471 1474 1474 1471 1470 1473 1478 1483 1489 1493 1498 1502 1506 1510 1513 1516 1519 1522 1525 1528 1530 1531 1533 1534 1535 1536 1537 1538 1538 1539 1540 1540 1540 1540 1540 1540
1458 1449 1447 1452 1451 1452 1455 1457 1461 1465 1469 1464 1468 1474 1479 1484 1489 1493 1498 1502 1506 1509 1512 1515 1517 1520 1523 1526 1528 1530 1531 1532 1534 1535 1536 1537 1537 1538 1539 1539 1540 1540 1540 1540
1466 1454 1453 1460 1450 1451 1453 1452 1457 1465 1465 1465 1470 1474 1479 1484 1488 1493 1497 1501 1504 1508 1511 1513 1516 1519 1521 1524 1526 1528 1530 1531 1532 1534 1535 1536 1537 1537 1538 1539 1539 1539 1539 1539
1466 1465 1479 1456 1441 1444 1449 1450 1452 1454 1458 1464 1468 1474 1479 1484 1488 1492 1496 1500 1504 1507 1510 1512 1515 1517 1520 1523 1525 1526 1528 1530 1531 1532 1533 1535 1536 1536 1537 1537 1538 1538 1538 1539
1468 1471 1467 1452 1443 1444 1451 1453 1450 1453 1458 1462 1468 1473 1480 1484 1487 1491 1495 1499 1502 1505 1508 1511 1513 1516 1518 1521 1523 1525 1526 1528 1529 1531 1532 1533 1534 1535 1536 1536 1537 1537 1538 1538
1468 1473 1476 1457 1444 1445 1450 1460 1452 1455 1459 1463 1467 1474 1480 1483 1487 1491 1494 1498 1501 1504 1506 1509 1511 1514 1516 1519 1521 1523 1524 1526 1528 1529 1530 1532 1533 1534 1535 1536 1536 1537 1537 1538
1467 1468 1461 1445 1444 1447 1466 1465 1456 1457 1461 1464 1468 1473 1479 1482 1487 1490 1493 1496 1499 1502 1504 1507 1509 1511 1514 1516 1518 1521 1523 1524 1526 1527 1529 1530 1531 1532 1533 1534 1535 1536 1536 1537
1464 1469 1467 1446 1446 1453 1459 1458 1459 1461 1463 1468 1471 1475 1479 1483 1487 1489 1492 1495 1497 1500 1502 1505 1507 1509 1511 1514 1516 1519 1521 1523 1524 1526 1527 1528 1529 1531 1532 1533 1534 1534 1535 1536
1457 1460 1454 1452 1453 1456 1458 1461 1463 1464 1467 1470 1473 1477 1480 1484 1487 1490 1492 1495 1497 1499 1501 1503 1505 1507 1509 1512 1514 1516 1519 1521 1522 1524 1525 1526 1527 1528 1530 1531 1532 1533 1534 1534
1453 1454 1455 1456 1458 1460 1462 1464 1466 1468 1471 1473 1475 1478 1481 1484 1487 1489 1492 1494 1496 1498 1500 1502 1503 1505 1507 1509 1511 1514 1516 1518 1520 1521 1523 1524 1525 1527 1528 1529 1530 1531 1532 1533
1452 1455 1457 1460 1462 1464 1466 1467 1469 1470 1472 1475 1477 1479 1481 1483 1486 1489 1491 1493 1495 1497 1499 1501 1502 1504 1506 1507 1509 1511 1513 1515 1518 1519 1520 1521 1523 1524 1526 1527 1528 1529 1530 1531
1453 1456 1458 1463 1465 1466 1468 1470 1471 1472 1475 1477 1478 1480 1482 1484 1486 1488 1491 1493 1494 1496 1498 1500 1501 1502 1503 1505 1506 1508 1510 1512 1515 1517 1518 1519 1520 1522 1523 1524 1525 1526 1527 1529
1455 1457 1459 1463 1466 1468 1470 1471 1473 1474 1476 1478 1480 1481 1482 1484 1486 1488 1490 1491 1493 1494 1496 1498 1499 1500 1501 1502 1504 1506 1508 1510 1512 1514 1515 1516 1518 1519 1520 1522 1523 1524 1525 1525
1458 1460 1462 1464 1467 1469 1471 1473 1474 1475 1477 1478 1480 1481 1483 1484 1486 1488 1489 1490 1492 1493 1494 1495 1497 1498 1499 1500 1501 1503 1505 1508 1510 1511 1512 1513 1515 1516 1517 1518 1519 1520 1521 1522
1462 1463 1464 1466 1468 1471 1472 1473 1474 1476 1477 1479 1480 1481 1482 1483 1485 1486 1488 1489 1490 1492 1492 1494 1495 1496 1497 1498 1499 1501 1502 1505 1506 1508 1510 1511 1512 1513 1514 1515 1516 1517 1517 1518
1465 1466 1467 1467 1469 1471 1472 1473 1474 1476 1477 1478 1480 1481 1482 1483 1484 1485 1486 1488 1489 1490 1490 1492 1493 1494 1494 1495 1497 1498 1500 1501 1503 1505 1507 1508 1509 1510 1511 1512 1513 1514 1514 1514
1465 1465 1467 1468 1469 1471 1472 1473 1474 1475 1477 1478 1479 1480 1481 1482 1483 1484 1485 1486 1487 1488 1489 1490 1490 1491 1492 1493 1495 1496 1497 1499 1500 1502 1503 1504 1505 1507 1508 1508 1510 1510 1511 1511
1464 1465 1466 1467 1469 1471 1472 1473 1474 1475 1476 1477 1479 1480 1481 1481 1482 1483 1484 1485 1485 1486 1487 1488 1488 1488 1490 1491 1493 1494 1495 1496 1497 1499 1500 1502 1503 1504 1505 1505 1506 1507 1508 1508
1464 1465 1466 1468 1469 1470 1471 1472 1473 1474 1475 1477 1478 1478 1479 1480 1481 1481 1482 1483 1483 1484 1484 1485 1485 1487 1487 1489 1490 1491 1493 1494 1495 1496 1497 1498 1499 1500 1501 1502 1502 1503 1504 1505
1463 1465 1465 1467 1468 1469 1470 1471 1472 1473 1474 1475 1475 1476 1477 1478 1479 1479 1480 1481 1481 1481 1482 1482 1483 1484 1485 1486 1487 1489 1490 1491 1492 1493 1494 1495 1496 1496 1497 1498 1499 1500 1501 1501
1463 1464 1464 1466 1467 1467 1467 1469 1470 1471 1472 1472 1473 1474 1475 1475 1476 1477 1477 1478 1478 1479 1479 1480 1481 1482 1483 1483 1485 1486 1487 1487 1489 1489 1490 1491 1492 1493 1494 1493 1494 1496 1497 1498
1462 1462 1463 1464 1464 1464 1465 1466 1467 1468 1469 1469 1470 1471 1472 1472 1473 1474 1474 1475 1476 1476 1477 1477 1478 1479 1480 1481 1482 1483 1483 1484 1485 1486 1487 1488 1488 1489 1490 1490 1490 1492 1493 1494
1460 1460 1461 1461 1462 1462 1463 1464 1465 1465 1466 1467 1467 1467 1468 1469 1470 1471 1471 1472 1472 1473 1473 1474 1474 1475 1476 1478 1478 1479 1480 1481 1481 1482 1483 1484 1485 1485 1486 1487 1488 1489 1490 1491
1458 1458 1459 1459 1460 1461 1461 1462 1462 1462 1463 1463 1464 1465 1465 1466 1467 1467 1468 1468 1469 1470 1471 1471 1471 1472 1473 1475 1476 1477 1477 1478 1479 1479 1480 1481 1481 1482 1482 1483 1485 1486 1487 1488
1456 1457 1457 1457 1458 1459 1459 1460 1460 1460 1460 1461 1461 1461 1463 1464 1465 1465 1465 1465 1466 1467 1467 1468 1469 1470 1471 1472 1473 1474 1474 1475 1476 1477 1477 1478 1479 1479 1480 1481 1482 1483 1484 1485
1454 1454 1455 1455 1456 1456 1457 1457 1458 1458 1458 1459 1459 1459 1460 1461 1462 1462 1463 1463 1463 1464 1464 1465 1466 1468 1469 1470 1471 1472 1472 1473 1473 1474 1475 1476 1476 1477 1477 1478 1479 1480 1481 1482
1452 1453 1453 1454 1454 1455 1455 1456 1456 1457 1457 1457 1458 1458 1459 1459 1460 1461 1461 1461 1461 1462 1463 1464 1465 1466 1468 1469 1469 1470 1470 1471 1471 1472 1473 1473 1474 1475 1475 1476 1477 1477 1478 1479